sat.trackr.live / text

‹ back to catalog

BEIDOU-3 M6 (C24)

NORAD 43582 · 2018-062B

PAYLOAD ACTIVE UNKNOWN

§ Identity

Operator
Country
PRC
Launch date
2018-07-29
Launch site
XICLF
Launch vehicle
Mass (kg)
RCS (m²)

Purposes: nav

External: N2YO · Heavens-Above · Gunter

§ Orbital elements

Epoch: 2026-05-24T08:16:00.740064Z

Period
773.25 min
Inclination
54.0836°
Eccentricity
0.0004844
Mean motion
1.86227529 rev/d
Perigee alt
21,514.9 km
Apogee alt
21,541.9 km
Semi-major
27,906.5 km
B*
0.0000e+0
RAAN
183.1035°
Arg perigee
12.8500°
Mean anomaly
347.2289°
Rev number
5,319

§ Raw data

BEIDOU-3 M6 (C24)1 43582U 18062B   26144.34445301  .00000052  00000+0  00000+0 0  99952 43582  54.0836 183.1035 0004844  12.8500 347.2289  1.86227529 53192

JSON: /api/v1/satellites/43582 · /tle

For live sub-satellite position, see the globe view (requires WebGL).

§ Visibility from observer

Set your observer location to see the next 7 days of passes ≥ 10°. The values pass through the URL so the page stays shareable.

No JS? Fill the form by hand. The geolocation button needs JavaScript.